UAE161 OMDB-EIDW

Flight info

Callsign UAE161
Flight time 7h 45m
Altitude 38000
Route RIDAP M557 TUMAK L602 GADSI M860 SEPTU DCT VUSEB M860 NINVA UM860 ODALI UL852 EVPUV/N0484F400 UL852 NEGEM DCT MAXOV DCT NARKA DCT DEMOP DCT ROMIS DCT LALUK DCT ZUCKA DCT PIROT DCT RAVLO Y70 OTBED L60 PENIL UL28 LELDO M145 BAGSO BAGSO4L
Aircraft B772/H-SDE2E3FGHIJ5LORVWXY/LB1D1

Departure

Time 2026-04-23 08:26
Airport Dubai International Airport (OMDB)

Arrival

Time 2026-04-23 16:11
Airport Dublin Airport (EIDW)
Time Latitude Longitude Altitude Speed Heading
2026-04-23 07:43 25.24765 55.36498 26 ft 0 kts 212°
2026-04-23 08:13 25.24773 55.36504 26 ft 2 kts 211°
2026-04-23 08:13 25.24786 55.36512 26 ft 2 kts 212°
2026-04-23 08:13 25.24794 55.36518 26 ft 1 kts 211°
2026-04-23 08:13 25.24807 55.36525 26 ft 2 kts 197°
2026-04-23 08:14 25.24822 55.36529 26 ft 2 kts 182°
2026-04-23 08:14 25.24836 55.36528 26 ft 2 kts 169°
2026-04-23 08:14 25.24851 55.36523 26 ft 2 kts 156°
2026-04-23 08:14 25.24864 55.36516 26 ft 2 kts 142°
2026-04-23 08:15 25.24875 55.36505 26 ft 2 kts 129°
2026-04-23 08:15 25.24880 55.36496 26 ft 0 kts 121°
2026-04-23 08:15 25.24881 55.36495 26 ft 0 kts 120°
2026-04-23 08:17 25.24881 55.36496 26 ft 0 kts 120°
2026-04-23 08:17 25.24871 55.36514 26 ft 6 kts 120°
2026-04-23 08:17 25.24842 55.36568 26 ft 9 kts 120°
2026-04-23 08:17 25.24811 55.36633 26 ft 9 kts 114°
2026-04-23 08:18 25.24792 55.36688 27 ft 6 kts 110°
2026-04-23 08:18 25.24781 55.36728 28 ft 4 kts 104°
2026-04-23 08:18 25.24774 55.36766 29 ft 6 kts 101°
2026-04-23 08:18 25.24755 55.36837 32 ft 12 kts 113°
2026-04-23 08:19 25.24749 55.36929 34 ft 11 kts 57°
2026-04-23 08:19 25.24814 55.36984 34 ft 11 kts 31°
2026-04-23 08:19 25.24893 55.37036 32 ft 14 kts 31°
2026-04-23 08:19 25.24976 55.37092 32 ft 14 kts 31°
2026-04-23 08:20 25.25050 55.37152 34 ft 11 kts 59°
2026-04-23 08:20 25.25043 55.37231 36 ft 10 kts 112°
2026-04-23 08:20 25.25011 55.37297 37 ft 9 kts 120°
2026-04-23 08:20 25.24976 55.37361 37 ft 9 kts 121°
2026-04-23 08:21 25.24941 55.37423 38 ft 9 kts 122°
2026-04-23 08:21 25.24906 55.37484 39 ft 9 kts 122°
2026-04-23 08:21 25.24872 55.37545 39 ft 10 kts 121°
2026-04-23 08:21 25.24829 55.37624 40 ft 14 kts 121°
2026-04-23 08:22 25.24769 55.37732 41 ft 15 kts 121°
2026-04-23 08:22 25.24747 55.37772 42 ft 5 kts 121°
2026-04-23 08:22 25.24726 55.37810 42 ft 6 kts 121°
2026-04-23 08:22 25.24703 55.37851 42 ft 6 kts 121°
2026-04-23 08:23 25.24679 55.37894 43 ft 6 kts 120°
2026-04-23 08:23 25.24674 55.37945 43 ft 7 kts 64°
2026-04-23 08:23 25.24715 55.37983 42 ft 8 kts 32°
2026-04-23 08:23 25.24768 55.38019 42 ft 9 kts 31°
2026-04-23 08:24 25.24815 55.38009 42 ft 5 kts 308°
2026-04-23 08:24 25.24828 55.37989 42 ft 0 kts 300°
2026-04-23 08:25 25.24831 55.37983 42 ft 5 kts 300°
2026-04-23 08:25 25.24955 55.37759 41 ft 70 kts 301°
2026-04-23 08:26 25.25331 55.37082 37 ft 134 kts 301°
2026-04-23 08:26 25.25912 55.36033 135 ft 174 kts 303°
2026-04-23 08:26 25.26510 55.34949 779 ft 168 kts 302°
2026-04-23 08:26 25.27139 55.33801 1306 ft 176 kts 302°
2026-04-23 08:27 25.27795 55.32594 1439 ft 195 kts 302°
2026-04-23 08:27 25.28542 55.31255 1650 ft 211 kts 303°
2026-04-23 08:27 25.29361 55.29812 1875 ft 232 kts 303°
2026-04-23 08:27 25.30266 55.28274 2232 ft 248 kts 306°
2026-04-23 08:28 25.31310 55.26680 2710 ft 260 kts 306°
2026-04-23 08:28 25.32359 55.25056 3359 ft 265 kts 304°
2026-04-23 08:28 25.33425 55.23387 4094 ft 266 kts 304°
2026-04-23 08:28 25.34493 55.21706 4739 ft 270 kts 303°
2026-04-23 08:29 25.35456 55.19952 5375 ft 271 kts 289°
2026-04-23 08:29 25.35769 55.17910 6018 ft 271 kts 270°
2026-04-23 08:29 25.35745 55.15841 6708 ft 271 kts 267°
2026-04-23 08:29 25.35671 55.13759 7295 ft 274 kts 266°
2026-04-23 08:30 25.35592 55.11648 7907 ft 276 kts 266°
2026-04-23 08:30 25.35515 55.09531 8480 ft 279 kts 266°
2026-04-23 08:30 25.35437 55.07373 9012 ft 283 kts 266°
2026-04-23 08:30 25.35360 55.05227 9609 ft 284 kts 266°
2026-04-23 08:31 25.35280 55.03031 10186 ft 287 kts 266°
2026-04-23 08:31 25.35197 55.00765 10417 ft 303 kts 266°
2026-04-23 08:31 25.35109 54.98377 10673 ft 320 kts 266°
2026-04-23 08:31 25.35016 54.95858 10951 ft 337 kts 266°
2026-04-23 08:32 25.34921 54.93208 11226 ft 352 kts 267°
2026-04-23 08:32 25.35084 54.90449 11510 ft 370 kts 277°
2026-04-23 08:32 25.35713 54.87691 12011 ft 380 kts 285°
2026-04-23 08:32 25.36513 54.84903 12682 ft 383 kts 285°
2026-04-23 08:33 25.37324 54.82096 13430 ft 386 kts 285°
2026-04-23 08:33 25.38136 54.79273 14149 ft 389 kts 285°
2026-04-23 08:33 25.38951 54.76435 14939 ft 390 kts 285°
2026-04-23 08:33 25.39777 54.73551 15775 ft 391 kts 285°
2026-04-23 08:34 25.40592 54.70702 16547 ft 392 kts 285°
2026-04-23 08:34 25.41411 54.67831 17256 ft 395 kts 285°
2026-04-23 08:34 25.42234 54.64943 18008 ft 397 kts 285°
2026-04-23 08:34 25.43062 54.62033 18696 ft 400 kts 285°
2026-04-23 08:35 25.43918 54.59089 19286 ft 406 kts 285°
2026-04-23 08:35 25.44802 54.56113 19910 ft 411 kts 286°
2026-04-23 08:35 25.45696 54.53102 20557 ft 415 kts 286°
2026-04-23 08:35 25.46597 54.50061 21172 ft 420 kts 286°
2026-04-23 08:36 25.47502 54.47004 21838 ft 422 kts 286°
2026-04-23 08:36 25.48416 54.43910 22464 ft 426 kts 286°
2026-04-23 08:36 25.49338 54.40785 23005 ft 431 kts 286°
2026-04-23 08:36 25.50267 54.37635 23595 ft 434 kts 286°
2026-04-23 08:37 25.51207 54.34445 24245 ft 436 kts 286°
2026-04-23 08:37 25.52145 54.31255 24893 ft 438 kts 286°
2026-04-23 08:37 25.53085 54.28059 25545 ft 439 kts 286°
2026-04-23 08:37 25.54030 54.24840 26154 ft 441 kts 286°
2026-04-23 08:38 25.54970 54.21640 26735 ft 443 kts 286°
2026-04-23 08:38 25.55932 54.18364 27265 ft 447 kts 286°
2026-04-23 08:38 25.56889 54.15101 27805 ft 449 kts 286°
2026-04-23 08:38 25.57851 54.11818 28305 ft 451 kts 287°
2026-04-23 08:39 25.58818 54.08515 28776 ft 454 kts 287°
2026-04-23 08:39 25.59788 54.05185 29244 ft 457 kts 286°
2026-04-23 08:39 25.60745 54.01833 29731 ft 459 kts 286°
2026-04-23 08:39 25.61701 53.98480 30391 ft 457 kts 286°
2026-04-23 08:40 25.62642 53.95173 31294 ft 449 kts 286°
2026-04-23 08:40 25.63574 53.91901 32383 ft 437 kts 286°
2026-04-23 08:40 25.64468 53.88756 33393 ft 426 kts 287°
2026-04-23 08:40 25.65345 53.85672 34204 ft 418 kts 286°
2026-04-23 08:41 25.66211 53.82621 34753 ft 416 kts 287°
2026-04-23 08:41 25.67074 53.79578 35171 ft 416 kts 286°
2026-04-23 08:41 25.67938 53.76529 35623 ft 415 kts 286°
2026-04-23 08:41 25.68831 53.73378 36067 ft 413 kts 286°
2026-04-23 08:42 25.69695 53.70317 36511 ft 411 kts 285°
2026-04-23 08:42 25.70558 53.67246 36887 ft 410 kts 286°
2026-04-23 08:42 25.71442 53.64104 37244 ft 409 kts 285°
2026-04-23 08:42 25.72271 53.61149 37554 ft 408 kts 285°
2026-04-23 08:43 25.73134 53.58076 37842 ft 408 kts 285°
2026-04-23 08:43 25.73992 53.55014 37845 ft 408 kts 285°
2026-04-23 08:43 25.75675 53.49006 37846 ft 404 kts 285°
2026-04-23 08:44 25.77355 53.43023 37847 ft 407 kts 285°
2026-04-23 08:44 25.79055 53.36962 37844 ft 406 kts 285°
2026-04-23 08:45 25.80740 53.30935 37859 ft 407 kts 285°
2026-04-23 08:45 25.82426 53.24901 37861 ft 406 kts 285°
2026-04-23 08:46 25.84108 53.18949 37867 ft 406 kts 288°
2026-04-23 08:46 25.86380 53.13165 37859 ft 410 kts 291°
2026-04-23 08:47 25.88724 53.07424 37880 ft 407 kts 291°
2026-04-23 08:47 25.91066 53.01671 37858 ft 409 kts 291°
2026-04-23 08:48 25.93408 52.95907 37870 ft 410 kts 291°
2026-04-23 08:48 25.95746 52.90144 37865 ft 408 kts 291°
2026-04-23 08:49 25.98064 52.84419 37864 ft 409 kts 291°
2026-04-23 08:49 26.00397 52.78651 37862 ft 408 kts 291°
2026-04-23 08:50 26.02744 52.72934 37864 ft 409 kts 293°
2026-04-23 08:50 26.05308 52.67291 37860 ft 409 kts 294°
2026-04-23 08:51 26.07861 52.61656 37858 ft 410 kts 293°
2026-04-23 08:51 26.10420 52.55982 37852 ft 408 kts 293°
2026-04-23 08:52 26.12959 52.50347 37858 ft 409 kts 293°
2026-04-23 08:52 26.15507 52.44702 37853 ft 410 kts 293°
2026-04-23 08:53 26.18069 52.39017 37858 ft 408 kts 293°
2026-04-23 08:53 26.20608 52.33372 37876 ft 410 kts 292°
2026-04-23 08:54 26.23132 52.27689 37874 ft 408 kts 292°
2026-04-23 08:54 26.25581 52.22020 37874 ft 407 kts 292°
2026-04-23 08:55 26.28041 52.16324 37876 ft 411 kts 292°
2026-04-23 08:55 26.30502 52.10626 37872 ft 407 kts 292°
2026-04-23 08:56 26.32951 52.04952 37876 ft 408 kts 292°
2026-04-23 08:56 26.35411 51.99259 37880 ft 408 kts 292°
2026-04-23 08:57 26.37806 51.93509 37875 ft 406 kts 288°
2026-04-23 08:57 26.39789 51.87634 37878 ft 406 kts 288°
2026-04-23 08:58 26.41760 51.81756 37873 ft 405 kts 288°
2026-04-23 08:58 26.43729 51.75883 37875 ft 405 kts 288°
2026-04-23 08:59 26.45694 51.70015 37880 ft 406 kts 288°
2026-04-23 08:59 26.47667 51.64113 37880 ft 405 kts 288°
2026-04-23 09:00 26.49613 51.58273 37891 ft 405 kts 287°
2026-04-23 09:00 26.51572 51.52383 37891 ft 405 kts 287°
2026-04-23 09:01 26.53538 51.46465 37903 ft 406 kts 288°
2026-04-23 09:01 26.55491 51.40577 37888 ft 404 kts 287°
2026-04-23 09:02 26.57440 51.34692 37895 ft 406 kts 287°
2026-04-23 09:02 26.59392 51.28787 37922 ft 405 kts 287°
2026-04-23 09:03 26.61350 51.22882 37907 ft 404 kts 287°
2026-04-23 09:03 26.63296 51.17000 37919 ft 405 kts 288°
2026-04-23 09:04 26.65235 51.11134 37920 ft 404 kts 287°
2026-04-23 09:04 26.67173 51.05257 37932 ft 404 kts 287°
2026-04-23 09:05 26.69105 50.99371 37911 ft 403 kts 287°
2026-04-23 09:05 26.70988 50.93486 37916 ft 402 kts 287°
2026-04-23 09:06 26.72866 50.87608 37923 ft 403 kts 287°
2026-04-23 09:06 26.74748 50.81710 37909 ft 403 kts 287°
2026-04-23 09:07 26.76623 50.75833 37923 ft 402 kts 287°
2026-04-23 09:07 26.78498 50.69943 37925 ft 403 kts 287°
2026-04-23 09:08 26.80889 50.64263 37917 ft 408 kts 298°
2026-04-23 09:08 26.84385 50.59185 37923 ft 413 kts 304°
2026-04-23 09:09 26.87998 50.54252 37906 ft 412 kts 303°
2026-04-23 09:09 26.91633 50.49272 37915 ft 414 kts 303°
2026-04-23 09:10 26.97528 50.42163 37917 ft 416 kts 307°
2026-04-23 09:11 27.01550 50.37424 37924 ft 417 kts 307°
2026-04-23 09:11 27.05498 50.32745 37936 ft 413 kts 306°
2026-04-23 09:12 27.09432 50.28007 37939 ft 414 kts 306°
2026-04-23 09:12 27.13371 50.23250 37936 ft 414 kts 306°
2026-04-23 09:13 27.17536 50.18773 37932 ft 422 kts 314°
2026-04-23 09:13 27.22283 50.14845 37931 ft 424 kts 315°
2026-04-23 09:14 27.27038 50.10927 37931 ft 426 kts 315°
2026-04-23 09:14 27.31822 50.06980 37924 ft 423 kts 315°
2026-04-23 09:15 27.36590 50.03034 37935 ft 425 kts 315°
2026-04-23 09:15 27.41233 49.98962 37942 ft 421 kts 314°
2026-04-23 09:16 27.45867 49.94871 37915 ft 421 kts 313°
2026-04-23 09:16 27.50525 49.90762 37930 ft 425 kts 314°
2026-04-23 09:17 27.55162 49.86674 37949 ft 421 kts 314°
2026-04-23 09:17 27.59819 49.82562 37928 ft 423 kts 314°
2026-04-23 09:18 27.64462 49.78461 37936 ft 424 kts 314°
2026-04-23 09:18 27.69106 49.74355 37924 ft 423 kts 314°
2026-04-23 09:19 27.73752 49.70242 37935 ft 424 kts 314°
2026-04-23 09:19 27.78424 49.66102 37940 ft 423 kts 314°
2026-04-23 09:20 27.83086 49.61944 37927 ft 425 kts 313°
2026-04-23 09:20 27.87700 49.57823 37943 ft 423 kts 313°
2026-04-23 09:21 27.92315 49.53696 37937 ft 423 kts 313°
2026-04-23 09:21 27.96935 49.49561 37938 ft 423 kts 313°
2026-04-23 09:22 28.01540 49.45434 37940 ft 424 kts 313°
2026-04-23 09:22 28.06136 49.41275 37928 ft 423 kts 313°
2026-04-23 09:23 28.10706 49.37101 37936 ft 425 kts 313°
2026-04-23 09:23 28.15319 49.32886 37966 ft 425 kts 313°
2026-04-23 09:24 28.19921 49.28679 37975 ft 422 kts 312°
2026-04-23 09:24 28.24512 49.24474 37953 ft 427 kts 313°
2026-04-23 09:25 28.29089 49.20283 37967 ft 424 kts 312°
2026-04-23 09:25 28.33707 49.16047 37968 ft 424 kts 312°
2026-04-23 09:26 28.38274 49.11855 37967 ft 424 kts 313°
2026-04-23 09:26 28.43084 49.07801 37975 ft 433 kts 317°
2026-04-23 09:27 28.48117 49.04026 37977 ft 432 kts 317°
2026-04-23 09:27 28.53155 49.00204 37980 ft 434 kts 317°
2026-04-23 09:28 28.58188 48.96361 37970 ft 432 kts 317°
2026-04-23 09:28 28.63196 48.92520 37969 ft 435 kts 317°
2026-04-23 09:29 28.68207 48.88668 37976 ft 434 kts 317°
2026-04-23 09:29 28.73220 48.84807 37974 ft 435 kts 316°
2026-04-23 09:30 28.78246 48.80930 37968 ft 437 kts 317°
2026-04-23 09:30 28.83283 48.77056 37972 ft 436 kts 317°
2026-04-23 09:31 28.88366 48.73165 37972 ft 438 kts 317°
2026-04-23 09:31 28.93409 48.69300 37965 ft 436 kts 317°
2026-04-23 09:32 28.98429 48.65447 37966 ft 438 kts 317°
2026-04-23 09:32 29.03501 48.61548 37968 ft 438 kts 317°
2026-04-23 09:33 29.08579 48.57640 37962 ft 438 kts 317°
2026-04-23 09:33 29.13632 48.53748 37949 ft 438 kts 317°
2026-04-23 09:34 29.18718 48.49823 37959 ft 440 kts 317°
2026-04-23 09:34 29.23786 48.45909 37948 ft 438 kts 317°
2026-04-23 09:35 29.28858 48.41985 37962 ft 441 kts 317°
2026-04-23 09:35 29.33953 48.38041 37946 ft 441 kts 317°
2026-04-23 09:36 29.39024 48.34110 37962 ft 440 kts 317°
2026-04-23 09:36 29.44083 48.30184 37966 ft 439 kts 317°
2026-04-23 09:37 29.49401 48.26632 37971 ft 445 kts 321°
2026-04-23 09:37 29.54848 48.23101 37961 ft 446 kts 321°
2026-04-23 09:38 29.60232 48.19584 37968 ft 446 kts 321°
2026-04-23 09:38 29.65632 48.16036 37955 ft 448 kts 321°
2026-04-23 09:39 29.71042 48.12474 37959 ft 445 kts 321°
2026-04-23 09:39 29.76466 48.08889 37959 ft 449 kts 321°
2026-04-23 09:40 29.81903 48.05294 37960 ft 447 kts 321°
2026-04-23 09:40 29.87295 48.01721 37965 ft 448 kts 321°
2026-04-23 09:41 29.92680 47.98149 37966 ft 448 kts 321°
2026-04-23 09:41 29.98124 47.94531 37927 ft 449 kts 321°
2026-04-23 09:42 30.03134 47.90394 37952 ft 434 kts 308°
2026-04-23 09:42 30.07156 47.85252 37961 ft 427 kts 303°
2026-04-23 09:43 30.11041 47.80065 37949 ft 427 kts 303°
2026-04-23 09:43 30.14935 47.74861 37950 ft 427 kts 304°
2026-04-23 09:44 30.18820 47.69666 37952 ft 426 kts 303°
2026-04-23 09:44 30.22728 47.64431 37955 ft 428 kts 303°
2026-04-23 09:45 30.26618 47.59218 37948 ft 425 kts 303°
2026-04-23 09:45 30.30491 47.54018 37953 ft 428 kts 303°
2026-04-23 09:46 30.34371 47.48804 37953 ft 426 kts 303°
2026-04-23 09:46 30.38278 47.43546 37956 ft 426 kts 304°
2026-04-23 09:47 30.42137 47.38346 37954 ft 426 kts 304°
2026-04-23 09:47 30.46030 47.33091 37971 ft 426 kts 303°
2026-04-23 09:48 30.49920 47.27836 37971 ft 425 kts 303°
2026-04-23 09:48 30.53794 47.22595 37967 ft 426 kts 303°
2026-04-23 09:49 30.57923 47.17542 37967 ft 434 kts 312°
2026-04-23 09:49 30.62639 47.13130 37972 ft 436 kts 313°
2026-04-23 09:50 30.67375 47.08722 37971 ft 437 kts 313°
2026-04-23 09:50 30.72160 47.04257 37969 ft 435 kts 313°
2026-04-23 09:51 30.76895 46.99828 37972 ft 437 kts 313°
2026-04-23 09:51 30.81597 46.95422 37968 ft 437 kts 313°
2026-04-23 09:52 30.86337 46.90975 37971 ft 436 kts 313°
2026-04-23 09:52 30.91071 46.86527 37970 ft 436 kts 313°
2026-04-23 09:53 30.95807 46.82070 37970 ft 437 kts 313°
2026-04-23 09:53 31.00524 46.77626 37970 ft 436 kts 313°
2026-04-23 09:54 31.05274 46.73144 37965 ft 437 kts 313°
2026-04-23 09:54 31.10022 46.68660 37973 ft 437 kts 313°
2026-04-23 09:55 31.14762 46.64175 37961 ft 438 kts 313°
2026-04-23 09:55 31.19472 46.59715 37963 ft 435 kts 313°
2026-04-23 09:56 31.24218 46.55213 37952 ft 437 kts 313°
2026-04-23 09:56 31.28943 46.50725 37960 ft 438 kts 313°
2026-04-23 09:57 31.33650 46.46249 37956 ft 437 kts 313°
2026-04-23 09:57 31.38404 46.41723 37949 ft 436 kts 313°
2026-04-23 09:58 31.43136 46.37209 37958 ft 439 kts 313°
2026-04-23 09:58 31.47916 46.32646 37965 ft 436 kts 313°
2026-04-23 09:59 31.52649 46.28121 37963 ft 436 kts 312°
2026-04-23 09:59 31.57401 46.23570 37960 ft 438 kts 313°
2026-04-23 10:00 31.62110 46.19057 37962 ft 436 kts 312°
2026-04-23 10:00 31.66839 46.14516 37967 ft 437 kts 312°
2026-04-23 10:01 31.71575 46.09964 37955 ft 437 kts 312°
2026-04-23 10:01 31.76264 46.05438 37961 ft 436 kts 312°
2026-04-23 10:02 31.80960 46.00780 37960 ft 437 kts 311°
2026-04-23 10:02 31.85667 45.96106 37953 ft 435 kts 311°
2026-04-23 10:03 31.90343 45.91459 37954 ft 437 kts 311°
2026-04-23 10:03 31.94948 45.86879 37955 ft 435 kts 311°
2026-04-23 10:04 31.99578 45.82267 37955 ft 437 kts 312°
2026-04-23 10:04 32.04238 45.77621 37954 ft 436 kts 312°
2026-04-23 10:05 32.08866 45.72999 37957 ft 438 kts 312°
2026-04-23 10:05 32.13551 45.68315 37953 ft 438 kts 312°
2026-04-23 10:06 32.18211 45.63650 37954 ft 437 kts 312°
2026-04-23 10:06 32.22853 45.58995 37951 ft 438 kts 312°
2026-04-23 10:07 32.27491 45.54338 37955 ft 439 kts 312°
2026-04-23 10:07 32.32152 45.49653 37952 ft 438 kts 312°
2026-04-23 10:08 32.36834 45.44939 37949 ft 437 kts 312°
2026-04-23 10:08 32.41499 45.40235 37952 ft 438 kts 312°
2026-04-23 10:09 32.48474 45.33190 37971 ft 438 kts 311°
2026-04-23 10:09 32.53085 45.28525 37969 ft 439 kts 311°
2026-04-23 10:10 32.58019 45.24134 37977 ft 446 kts 318°
2026-04-23 10:10 32.63173 45.20064 37973 ft 446 kts 318°
2026-04-23 10:11 32.68327 45.15984 37976 ft 445 kts 318°
2026-04-23 10:11 32.73494 45.11883 37971 ft 446 kts 318°
2026-04-23 10:12 32.78696 45.07746 37977 ft 448 kts 318°
2026-04-23 10:12 32.83849 45.03643 37976 ft 446 kts 318°
2026-04-23 10:13 32.89020 44.99517 37973 ft 447 kts 318°
2026-04-23 10:13 32.94157 44.95414 37972 ft 446 kts 318°
2026-04-23 10:14 32.99308 44.91292 37978 ft 447 kts 318°
2026-04-23 10:14 33.04474 44.87152 37974 ft 448 kts 318°
2026-04-23 10:15 33.09652 44.82996 37973 ft 449 kts 318°
2026-04-23 10:15 33.14854 44.78818 37969 ft 447 kts 318°
2026-04-23 10:16 33.20044 44.74756 37967 ft 453 kts 323°
2026-04-23 10:16 33.26065 44.71985 37969 ft 471 kts 338°
2026-04-23 10:17 33.32409 44.70133 37970 ft 470 kts 338°
2026-04-23 10:17 33.38821 44.68263 37971 ft 473 kts 338°
2026-04-23 10:18 33.45179 44.66398 37973 ft 470 kts 338°
2026-04-23 10:18 33.51531 44.64525 37970 ft 472 kts 338°
2026-04-23 10:19 33.57953 44.62627 37969 ft 472 kts 338°
2026-04-23 10:19 33.64338 44.60737 37969 ft 471 kts 338°
2026-04-23 10:20 33.70707 44.58846 37969 ft 472 kts 338°
2026-04-23 10:20 33.77110 44.56943 37970 ft 472 kts 338°
2026-04-23 10:21 33.83452 44.55054 37969 ft 472 kts 338°
2026-04-23 10:21 33.89842 44.53148 37970 ft 473 kts 338°
2026-04-23 10:22 33.96211 44.51246 37971 ft 472 kts 338°
2026-04-23 10:22 34.02587 44.49337 37970 ft 472 kts 338°
2026-04-23 10:23 34.08981 44.47422 37974 ft 471 kts 338°
2026-04-23 10:23 34.15355 44.45508 37972 ft 473 kts 338°
2026-04-23 10:24 34.21763 44.43583 37973 ft 472 kts 338°
2026-04-23 10:24 34.28114 44.41671 37977 ft 471 kts 339°
2026-04-23 10:25 34.34490 44.39747 37975 ft 474 kts 338°
2026-04-23 10:25 34.40899 44.37812 37979 ft 473 kts 339°
2026-04-23 10:26 34.47259 44.35888 37978 ft 474 kts 338°
2026-04-23 10:26 34.53688 44.33940 37999 ft 473 kts 338°
2026-04-23 10:27 34.60073 44.32003 38005 ft 471 kts 338°
2026-04-23 10:27 34.66434 44.30070 38005 ft 472 kts 338°
2026-04-23 10:28 34.72825 44.28124 38008 ft 473 kts 338°
2026-04-23 10:28 34.79207 44.26178 38011 ft 472 kts 338°
2026-04-23 10:29 34.85576 44.24233 38012 ft 473 kts 338°
2026-04-23 10:29 34.92027 44.22260 38010 ft 473 kts 338°
2026-04-23 10:30 34.98443 44.20294 38014 ft 474 kts 338°
2026-04-23 10:30 35.04814 44.18339 38010 ft 472 kts 339°
2026-04-23 10:31 35.11212 44.16373 38017 ft 474 kts 339°
2026-04-23 10:31 35.17644 44.14393 38019 ft 473 kts 339°
2026-04-23 10:32 35.24034 44.12422 38019 ft 473 kts 339°
2026-04-23 10:32 35.30384 44.10461 38013 ft 473 kts 339°
2026-04-23 10:33 35.36792 44.08479 38021 ft 472 kts 339°
2026-04-23 10:33 35.43186 44.06497 38011 ft 473 kts 339°
2026-04-23 10:34 35.49577 44.04514 38026 ft 472 kts 339°
2026-04-23 10:34 35.55963 44.02529 38035 ft 472 kts 339°
2026-04-23 10:35 35.62311 44.00549 37965 ft 473 kts 339°
2026-04-23 10:35 35.68734 43.98420 37883 ft 469 kts 337°
2026-04-23 10:36 35.74989 43.95962 37797 ft 467 kts 334°
2026-04-23 10:36 35.81035 43.92964 37815 ft 461 kts 329°
2026-04-23 10:37 35.86700 43.89341 37871 ft 456 kts 323°
2026-04-23 10:37 35.91949 43.84985 37936 ft 452 kts 316°
2026-04-23 10:38 35.96650 43.79872 37959 ft 445 kts 309°
2026-04-23 10:38 36.00617 43.74094 37923 ft 438 kts 301°
2026-04-23 10:39 36.03744 43.67714 37835 ft 433 kts 292°
2026-04-23 10:39 36.05940 43.60822 37803 ft 428 kts 283°
2026-04-23 10:40 36.07100 43.53606 37789 ft 425 kts 274°
2026-04-23 10:40 36.07162 43.46325 37845 ft 423 kts 264°
2026-04-23 10:41 36.06105 43.39169 37877 ft 425 kts 255°
2026-04-23 10:41 36.03927 43.32350 37897 ft 426 kts 244°
2026-04-23 10:42 36.00706 43.26196 37879 ft 430 kts 234°
2026-04-23 10:42 35.96536 43.20887 37835 ft 436 kts 224°
2026-04-23 10:43 35.91522 43.16613 37833 ft 441 kts 214°
2026-04-23 10:43 35.88723 43.14914 38012 ft 446 kts 206°
2026-04-23 10:43 35.85737 43.13794 38002 ft 456 kts 197°
2026-04-23 10:44 35.79308 43.13421 38013 ft 472 kts 179°
2026-04-23 10:44 35.72935 43.15618 37996 ft 487 kts 161°
2026-04-23 10:45 35.67212 43.20255 37997 ft 505 kts 143°
2026-04-23 10:45 35.62698 43.27008 38008 ft 518 kts 124°
2026-04-23 10:46 35.59925 43.35194 38001 ft 526 kts 106°
2026-04-23 10:46 35.59148 43.44109 38017 ft 532 kts 88°
2026-04-23 10:47 35.60453 43.53006 38012 ft 533 kts 70°
2026-04-23 10:47 35.63738 43.61061 38033 ft 528 kts 52°
2026-04-23 10:48 35.68677 43.67589 38019 ft 519 kts 34°
2026-04-23 10:48 35.74693 43.72388 38017 ft 514 kts 26°
2026-04-23 10:49 35.80812 43.76878 38019 ft 514 kts 26°
2026-04-23 10:49 35.86950 43.81334 38008 ft 510 kts 22°
2026-04-23 10:50 35.93522 43.84226 38013 ft 496 kts
2026-04-23 10:50 36.00309 43.85036 38030 ft 486 kts 354°
2026-04-23 10:51 36.06983 43.84592 38024 ft 480 kts 347°
2026-04-23 10:51 36.13578 43.83427 38034 ft 476 kts 343°
2026-04-23 10:52 36.20055 43.81863 38034 ft 474 kts 341°
2026-04-23 10:52 36.26472 43.80082 38028 ft 471 kts 339°
2026-04-23 10:53 36.32560 43.77335 38031 ft 464 kts 332°
2026-04-23 10:53 36.38561 43.74299 38037 ft 464 kts 331°
2026-04-23 10:54 36.44527 43.71241 38034 ft 464 kts 331°
2026-04-23 10:54 36.50481 43.68167 38027 ft 463 kts 331°
2026-04-23 10:55 36.56398 43.65098 38038 ft 464 kts 331°
2026-04-23 10:55 36.62358 43.61995 38032 ft 463 kts 331°
2026-04-23 10:56 36.68294 43.58899 38043 ft 463 kts 331°
2026-04-23 10:56 36.74228 43.55796 38047 ft 462 kts 331°
2026-04-23 10:57 36.80112 43.52562 38052 ft 462 kts 330°
2026-04-23 10:57 36.86008 43.49255 38061 ft 462 kts 330°
2026-04-23 10:58 36.91854 43.45977 38069 ft 462 kts 330°
2026-04-23 10:58 36.97704 43.42696 38075 ft 461 kts 330°
2026-04-23 10:59 37.03543 43.39418 38074 ft 461 kts 330°
2026-04-23 10:59 37.09452 43.36095 38080 ft 462 kts 330°
2026-04-23 11:00 37.15334 43.32782 38087 ft 461 kts 329°
2026-04-23 11:00 37.21203 43.29472 38087 ft 460 kts 329°
2026-04-23 11:01 37.27024 43.26183 38101 ft 461 kts 329°
2026-04-23 11:01 37.32543 43.22235 38100 ft 450 kts 316°
2026-04-23 11:02 37.36850 43.16684 38100 ft 439 kts 301°
2026-04-23 11:02 37.39900 43.10164 38097 ft 435 kts 294°
2026-04-23 11:03 37.42759 43.03478 38105 ft 434 kts 294°
2026-04-23 11:03 37.45599 42.96812 38107 ft 436 kts 295°
2026-04-23 11:04 37.48451 42.90099 38109 ft 435 kts 294°
2026-04-23 11:04 37.51317 42.83338 38109 ft 434 kts 294°
2026-04-23 11:05 37.54147 42.76645 38109 ft 433 kts 294°
2026-04-23 11:05 37.56971 42.69951 38085 ft 434 kts 294°
2026-04-23 11:06 37.61212 42.59882 38102 ft 434 kts 294°
2026-04-23 11:07 37.64055 42.53128 38070 ft 432 kts 294°
2026-04-23 11:07 37.66866 42.46433 38086 ft 433 kts 294°
2026-04-23 11:08 37.69689 42.39694 38067 ft 433 kts 294°
2026-04-23 11:08 37.72506 42.32958 38073 ft 432 kts 294°
2026-04-23 11:09 37.75303 42.26252 38073 ft 431 kts 294°
2026-04-23 11:09 37.78075 42.19594 38064 ft 430 kts 294°
2026-04-23 11:10 37.80858 42.12894 38078 ft 432 kts 294°
2026-04-23 11:10 37.83630 42.06207 38060 ft 429 kts 294°
2026-04-23 11:11 37.86395 41.99523 38052 ft 429 kts 294°
2026-04-23 11:11 37.89180 41.92777 38062 ft 430 kts 294°
2026-04-23 11:12 37.92351 41.86354 38040 ft 436 kts 305°
2026-04-23 11:12 37.96368 41.80555 38039 ft 437 kts 307°
2026-04-23 11:13 38.00375 41.74822 38043 ft 439 kts 307°
2026-04-23 11:13 38.04406 41.69033 38036 ft 436 kts 306°
2026-04-23 11:14 38.08425 41.63244 38034 ft 440 kts 306°
2026-04-23 11:14 38.12473 41.57402 38032 ft 436 kts 306°
2026-04-23 11:15 38.16476 41.51611 38032 ft 440 kts 306°
2026-04-23 11:15 38.20479 41.45810 38031 ft 436 kts 306°
2026-04-23 11:16 38.24473 41.40011 38027 ft 437 kts 307°
2026-04-23 11:16 38.28512 41.34135 38032 ft 438 kts 306°
2026-04-23 11:17 38.32545 41.28258 38042 ft 437 kts 306°
2026-04-23 11:17 38.36515 41.22463 38033 ft 438 kts 306°
2026-04-23 11:18 38.40530 41.16589 38040 ft 437 kts 306°
2026-04-23 11:18 38.44516 41.10748 38041 ft 438 kts 306°
2026-04-23 11:19 38.48471 41.04869 38041 ft 436 kts 304°
2026-04-23 11:19 38.52361 40.98909 38038 ft 438 kts 305°
2026-04-23 11:20 38.56258 40.92936 38042 ft 438 kts 305°
2026-04-23 11:20 38.60144 40.86976 38034 ft 436 kts 304°
2026-04-23 11:21 38.64039 40.81002 38029 ft 437 kts 305°
2026-04-23 11:21 38.67960 40.75089 38028 ft 437 kts 305°
2026-04-23 11:22 38.71856 40.69204 38029 ft 436 kts 305°
2026-04-23 11:22 38.75776 40.63269 38033 ft 438 kts 305°
2026-04-23 11:23 38.79680 40.57347 38028 ft 436 kts 305°
2026-04-23 11:23 38.83569 40.51434 38019 ft 436 kts 305°
2026-04-23 11:24 38.87470 40.45493 38020 ft 434 kts 305°
2026-04-23 11:24 38.91420 40.39463 38012 ft 435 kts 305°
2026-04-23 11:25 38.95307 40.33519 38008 ft 435 kts 304°
2026-04-23 11:25 38.99188 40.27577 37989 ft 430 kts 304°
2026-04-23 11:26 39.03051 40.21646 37981 ft 434 kts 304°
2026-04-23 11:26 39.06894 40.15739 37992 ft 430 kts 304°
2026-04-23 11:27 39.10755 40.09788 37986 ft 434 kts 304°
2026-04-23 11:27 39.14606 40.03847 37993 ft 431 kts 304°
2026-04-23 11:28 39.18460 39.97886 37967 ft 432 kts 304°
2026-04-23 11:28 39.22332 39.91883 37976 ft 431 kts 304°
2026-04-23 11:29 39.26149 39.85954 37975 ft 431 kts 304°
2026-04-23 11:29 39.29971 39.80004 37981 ft 432 kts 304°
2026-04-23 11:30 39.33786 39.74056 37972 ft 428 kts 304°
2026-04-23 11:30 39.37583 39.68121 37953 ft 432 kts 304°
2026-04-23 11:31 39.41401 39.62145 37949 ft 430 kts 304°
2026-04-23 11:31 39.45190 39.56203 37946 ft 428 kts 303°
2026-04-23 11:32 39.48975 39.50254 37914 ft 431 kts 304°
2026-04-23 11:32 39.52771 39.44250 37957 ft 429 kts 304°
2026-04-23 11:33 39.56514 39.38219 37929 ft 433 kts 303°
2026-04-23 11:33 39.60258 39.32180 37947 ft 428 kts 303°
2026-04-23 11:34 39.63987 39.26155 37942 ft 431 kts 302°
2026-04-23 11:34 39.67725 39.20105 37938 ft 429 kts 303°
2026-04-23 11:35 39.71444 39.14077 37928 ft 431 kts 303°
2026-04-23 11:35 39.75234 39.07990 37957 ft 433 kts 303°
2026-04-23 11:36 39.78980 39.02030 37946 ft 428 kts 303°
2026-04-23 11:36 39.82765 38.95988 37939 ft 431 kts 303°
2026-04-23 11:37 39.86538 38.89954 37939 ft 430 kts 303°
2026-04-23 11:37 39.90325 38.83882 37951 ft 432 kts 303°
2026-04-23 11:38 39.94094 38.77830 37940 ft 431 kts 303°
2026-04-23 11:38 39.97856 38.71776 37940 ft 430 kts 303°
2026-04-23 11:39 40.01597 38.65743 37943 ft 431 kts 303°
2026-04-23 11:39 40.05367 38.59651 37930 ft 430 kts 303°
2026-04-23 11:40 40.09116 38.53581 37939 ft 433 kts 303°
2026-04-23 11:40 40.12849 38.47528 37918 ft 428 kts 303°
2026-04-23 11:41 40.16583 38.41457 37936 ft 432 kts 303°
2026-04-23 11:41 40.20349 38.35325 37932 ft 430 kts 303°
2026-04-23 11:42 40.24094 38.29215 37928 ft 431 kts 302°
2026-04-23 11:42 40.27821 38.23122 37951 ft 431 kts 303°
2026-04-23 11:43 40.31501 38.16992 37945 ft 427 kts 298°
2026-04-23 11:43 40.34202 38.10195 37935 ft 420 kts 288°
2026-04-23 11:44 40.36360 38.03097 37929 ft 419 kts 287°
2026-04-23 11:44 40.38496 37.96019 37921 ft 420 kts 287°
2026-04-23 11:45 40.40639 37.88887 37912 ft 419 kts 287°
2026-04-23 11:45 40.42758 37.81810 37917 ft 420 kts 288°
2026-04-23 11:46 40.44883 37.74694 37907 ft 421 kts 287°
2026-04-23 11:46 40.47000 37.67582 37917 ft 421 kts 287°
2026-04-23 11:47 40.49122 37.60442 37896 ft 420 kts 288°
2026-04-23 11:47 40.51235 37.53312 37905 ft 420 kts 287°
2026-04-23 11:48 40.53345 37.46172 37895 ft 419 kts 287°
2026-04-23 11:48 40.55456 37.39008 37893 ft 421 kts 288°
2026-04-23 11:49 40.57549 37.31892 37892 ft 417 kts 287°
2026-04-23 11:49 40.59643 37.24744 37915 ft 422 kts 287°
2026-04-23 11:50 40.61742 37.17567 37897 ft 417 kts 286°
2026-04-23 11:50 40.63820 37.10437 37908 ft 420 kts 287°
2026-04-23 11:51 40.65903 37.03274 37896 ft 420 kts 287°
2026-04-23 11:51 40.67983 36.96102 37886 ft 420 kts 286°
2026-04-23 11:52 40.70057 36.88925 37880 ft 422 kts 287°
2026-04-23 11:52 40.72125 36.81756 37905 ft 419 kts 287°
2026-04-23 11:53 40.74197 36.74545 37912 ft 422 kts 287°
2026-04-23 11:53 40.76265 36.67337 37901 ft 420 kts 287°
2026-04-23 11:54 40.78319 36.60152 37932 ft 422 kts 287°
2026-04-23 11:54 40.80383 36.52920 37923 ft 422 kts 287°
2026-04-23 11:55 40.82430 36.45722 37921 ft 423 kts 287°
2026-04-23 11:55 40.84493 36.38450 37924 ft 423 kts 287°
2026-04-23 11:56 40.86542 36.31206 37968 ft 421 kts 286°
2026-04-23 11:56 40.88593 36.23931 37925 ft 424 kts 287°
2026-04-23 11:57 40.90645 36.16634 37933 ft 424 kts 286°
2026-04-23 11:57 40.92683 36.09369 37944 ft 422 kts 286°
2026-04-23 11:58 40.94716 36.02099 37922 ft 424 kts 286°
2026-04-23 11:58 40.96750 35.94805 37931 ft 422 kts 286°
2026-04-23 11:59 40.98785 35.87486 37937 ft 424 kts 287°
2026-04-23 11:59 41.00807 35.80195 37912 ft 425 kts 286°
2026-04-23 12:00 41.02844 35.72837 37940 ft 424 kts 287°
2026-04-23 12:00 41.04876 35.65465 37927 ft 428 kts 287°
2026-04-23 12:01 41.06894 35.58133 37940 ft 425 kts 286°
2026-04-23 12:01 41.08907 35.50792 37935 ft 425 kts 286°
2026-04-23 12:02 41.10922 35.43421 37925 ft 427 kts 287°
2026-04-23 12:02 41.12926 35.36073 37925 ft 425 kts 286°
2026-04-23 12:03 41.14938 35.28669 37940 ft 428 kts 285°
2026-04-23 12:03 41.16940 35.21284 37953 ft 426 kts 286°
2026-04-23 12:04 41.18940 35.13881 37957 ft 427 kts 286°
2026-04-23 12:04 41.20935 35.06475 37955 ft 427 kts 286°
2026-04-23 12:05 41.22934 34.99035 37883 ft 428 kts 286°
2026-04-23 12:05 41.24916 34.91635 37998 ft 425 kts 286°
2026-04-23 12:06 41.26900 34.84204 37893 ft 428 kts 286°
2026-04-23 12:06 41.29870 34.73066 37897 ft 428 kts 286°
2026-04-23 12:07 41.31860 34.65568 37898 ft 430 kts 286°
2026-04-23 12:07 41.33837 34.58104 37892 ft 430 kts 286°
2026-04-23 12:08 41.35814 34.50614 37900 ft 429 kts 286°
2026-04-23 12:08 41.37790 34.43105 37895 ft 430 kts 286°
2026-04-23 12:09 41.39758 34.35602 37904 ft 432 kts 287°
2026-04-23 12:09 41.41722 34.28056 37921 ft 431 kts 286°
2026-04-23 12:10 41.43680 34.20481 37937 ft 432 kts 285°
2026-04-23 12:10 41.45621 34.12952 37944 ft 430 kts 286°
2026-04-23 12:11 41.47568 34.05401 37952 ft 435 kts 286°
2026-04-23 12:11 41.49521 33.97810 37957 ft 432 kts 285°
2026-04-23 12:12 41.51463 33.90238 37948 ft 433 kts 286°
2026-04-23 12:12 41.53390 33.82697 37935 ft 431 kts 286°
2026-04-23 12:13 41.55317 33.75134 37924 ft 433 kts 286°
2026-04-23 12:13 41.57247 33.67532 37922 ft 433 kts 286°
2026-04-23 12:14 41.59167 33.59949 37912 ft 433 kts 286°
2026-04-23 12:14 41.61087 33.52359 37915 ft 433 kts 286°
2026-04-23 12:15 41.62996 33.44767 37906 ft 434 kts 286°
2026-04-23 12:15 41.64907 33.37143 37902 ft 434 kts 286°
2026-04-23 12:16 41.66829 33.29449 37908 ft 434 kts 285°
2026-04-23 12:16 41.68722 33.21844 37905 ft 437 kts 285°
2026-04-23 12:17 41.70627 33.14171 37912 ft 435 kts 285°
2026-04-23 12:17 41.72531 33.06477 37914 ft 435 kts 285°
2026-04-23 12:18 41.74427 32.98786 37929 ft 434 kts 285°
2026-04-23 12:18 41.76309 32.91138 37922 ft 434 kts 285°
2026-04-23 12:19 41.78182 32.83496 37927 ft 435 kts 286°
2026-04-23 12:19 41.80078 32.75736 37933 ft 436 kts 285°
2026-04-23 12:20 41.81960 32.68001 37957 ft 437 kts 286°
2026-04-23 12:20 41.83842 32.60239 37963 ft 439 kts 286°
2026-04-23 12:21 41.85714 32.52488 37981 ft 438 kts 286°
2026-04-23 12:21 41.87587 32.44706 37995 ft 440 kts 285°
2026-04-23 12:22 41.89439 32.36932 37999 ft 438 kts 286°
2026-04-23 12:22 41.91316 32.29120 38020 ft 441 kts 285°
2026-04-23 12:23 41.93186 32.21331 38020 ft 441 kts 285°
2026-04-23 12:23 41.95051 32.13476 38026 ft 442 kts 285°
2026-04-23 12:24 41.96905 32.05638 38028 ft 443 kts 285°
2026-04-23 12:24 41.98756 31.97783 38021 ft 442 kts 285°
2026-04-23 12:25 42.00610 31.89889 38023 ft 445 kts 285°
2026-04-23 12:25 42.02465 31.81979 38034 ft 445 kts 285°
2026-04-23 12:26 42.04320 31.74052 38029 ft 445 kts 285°
2026-04-23 12:26 42.06157 31.66167 38032 ft 445 kts 285°
2026-04-23 12:27 42.08001 31.58226 38022 ft 445 kts 285°
2026-04-23 12:27 42.09845 31.50258 38027 ft 445 kts 285°
2026-04-23 12:28 42.11681 31.42293 38024 ft 448 kts 285°
2026-04-23 12:28 42.13509 31.34340 38022 ft 447 kts 285°
2026-04-23 12:29 42.15336 31.26355 38026 ft 447 kts 285°
2026-04-23 12:29 42.17164 31.18341 38035 ft 448 kts 285°
2026-04-23 12:30 42.18971 31.10384 38027 ft 449 kts 285°
2026-04-23 12:30 42.20792 31.02340 38026 ft 448 kts 285°
2026-04-23 12:31 42.22598 30.94335 38022 ft 450 kts 285°
2026-04-23 12:31 42.24412 30.86263 38024 ft 448 kts 285°
2026-04-23 12:32 42.26205 30.78253 38030 ft 451 kts 285°
2026-04-23 12:32 42.28012 30.70155 38023 ft 448 kts 285°
2026-04-23 12:33 42.29792 30.62146 38022 ft 450 kts 285°
2026-04-23 12:33 42.31582 30.54062 38025 ft 449 kts 285°
2026-04-23 12:34 42.33361 30.45995 38022 ft 450 kts 286°
2026-04-23 12:34 42.35136 30.37920 38022 ft 449 kts 286°
2026-04-23 12:35 42.36912 30.29807 38027 ft 450 kts 285°
2026-04-23 12:35 42.38673 30.21733 38028 ft 450 kts 285°
2026-04-23 12:36 42.40436 30.13618 38025 ft 451 kts 285°
2026-04-23 12:36 42.42191 30.05513 38027 ft 450 kts 285°
2026-04-23 12:37 42.43937 29.97412 38028 ft 450 kts 285°
2026-04-23 12:37 42.45810 29.89340 38024 ft 452 kts 292°
2026-04-23 12:38 42.48994 29.82064 38024 ft 455 kts 306°
2026-04-23 12:38 42.52936 29.75335 38029 ft 456 kts 307°
2026-04-23 12:39 42.56880 29.68593 38026 ft 457 kts 307°
2026-04-23 12:39 42.60804 29.61850 38025 ft 458 kts 307°
2026-04-23 12:40 42.64751 29.55042 38027 ft 458 kts 307°
2026-04-23 12:40 42.68683 29.48239 38030 ft 458 kts 307°
2026-04-23 12:41 42.72589 29.41464 38029 ft 459 kts 307°
2026-04-23 12:41 42.76520 29.34627 38028 ft 460 kts 306°
2026-04-23 12:42 42.80470 29.27741 38030 ft 460 kts 306°
2026-04-23 12:42 42.84401 29.20870 38033 ft 461 kts 307°
2026-04-23 12:43 42.88316 29.14014 38031 ft 462 kts 307°
2026-04-23 12:43 42.92270 29.07070 38037 ft 463 kts 307°
2026-04-23 12:44 42.96228 29.00105 38036 ft 463 kts 307°
2026-04-23 12:44 43.00164 28.93162 38038 ft 464 kts 307°
2026-04-23 12:45 43.04106 28.86191 38036 ft 463 kts 307°
2026-04-23 12:45 43.08054 28.79192 38035 ft 463 kts 307°
2026-04-23 12:46 43.12013 28.72159 38034 ft 464 kts 307°
2026-04-23 12:46 43.15950 28.65148 38032 ft 464 kts 307°
2026-04-23 12:47 43.19872 28.58147 38042 ft 469 kts 307°
2026-04-23 12:47 43.21835 28.54636 38330 ft 469 kts 307°
2026-04-23 12:47 43.23820 28.51084 38783 ft 466 kts 307°
2026-04-23 12:48 43.25781 28.47568 39195 ft 463 kts 307°
2026-04-23 12:48 43.27732 28.44066 39461 ft 464 kts 307°
2026-04-23 12:48 43.29675 28.40574 39658 ft 465 kts 307°
2026-04-23 12:48 43.31659 28.37006 39867 ft 466 kts 307°
2026-04-23 12:49 43.33612 28.33487 40023 ft 468 kts 307°
2026-04-23 12:49 43.35588 28.29925 40033 ft 468 kts 307°
2026-04-23 12:49 43.39518 28.22825 40035 ft 465 kts 307°
2026-04-23 12:50 43.43430 28.15740 40030 ft 468 kts 307°
2026-04-23 12:50 43.47329 28.08662 40026 ft 466 kts 307°
2026-04-23 12:51 43.51243 28.01540 40022 ft 466 kts 307°
2026-04-23 12:51 43.55154 27.94406 40022 ft 468 kts 307°
2026-04-23 12:52 43.59047 27.87286 40020 ft 467 kts 307°
2026-04-23 12:52 43.63057 27.80308 40012 ft 467 kts 313°
2026-04-23 12:53 43.67525 27.73838 40012 ft 467 kts 314°
2026-04-23 12:53 43.71984 27.67322 40006 ft 467 kts 314°
2026-04-23 12:54 43.76409 27.60788 40015 ft 467 kts 314°
2026-04-23 12:54 43.80826 27.54225 40010 ft 469 kts 314°
2026-04-23 12:55 43.85234 27.47645 40013 ft 468 kts 314°
2026-04-23 12:55 43.89639 27.41046 40013 ft 467 kts 314°
2026-04-23 12:56 43.94040 27.34434 40005 ft 468 kts 313°
2026-04-23 12:56 43.98462 27.27771 40012 ft 468 kts 313°
2026-04-23 12:57 44.02849 27.21147 40016 ft 469 kts 313°
2026-04-23 12:57 44.07243 27.14494 40008 ft 468 kts 314°
2026-04-23 12:58 44.11623 27.07847 40023 ft 468 kts 313°
2026-04-23 12:58 44.16004 27.01182 40018 ft 468 kts 314°
2026-04-23 12:59 44.20372 26.94521 40011 ft 467 kts 314°
2026-04-23 12:59 44.24808 26.87741 40017 ft 469 kts 314°
2026-04-23 13:00 44.29181 26.81040 40018 ft 468 kts 314°
2026-04-23 13:00 44.33540 26.74346 40014 ft 468 kts 314°
2026-04-23 13:01 44.37909 26.67619 40023 ft 468 kts 314°
2026-04-23 13:01 44.42266 26.60895 40014 ft 469 kts 314°
2026-04-23 13:02 44.46648 26.54116 40009 ft 469 kts 314°
2026-04-23 13:02 44.51042 26.47303 40018 ft 469 kts 314°
2026-04-23 13:03 44.55421 26.40496 40024 ft 469 kts 314°
2026-04-23 13:03 44.59854 26.33588 40028 ft 470 kts 314°
2026-04-23 13:04 44.64262 26.26702 40021 ft 471 kts 314°
2026-04-23 13:04 44.68612 26.19890 40025 ft 471 kts 314°
2026-04-23 13:05 44.72985 26.13026 40020 ft 471 kts 314°
2026-04-23 13:05 44.77343 26.06167 40020 ft 471 kts 314°
2026-04-23 13:06 44.83938 25.95757 40007 ft 472 kts 314°
2026-04-23 13:07 44.87370 25.90325 39994 ft 474 kts 314°
2026-04-23 13:07 44.91776 25.83334 40003 ft 473 kts 314°
2026-04-23 13:08 44.96167 25.76350 40006 ft 473 kts 314°
2026-04-23 13:08 45.00525 25.69403 39991 ft 474 kts 314°
2026-04-23 13:09 45.04876 25.62447 39992 ft 473 kts 314°
2026-04-23 13:09 45.09262 25.55420 39994 ft 474 kts 314°
2026-04-23 13:10 45.13614 25.48428 39993 ft 473 kts 314°
2026-04-23 13:10 45.17992 25.41377 39988 ft 474 kts 314°
2026-04-23 13:11 45.22348 25.34345 39984 ft 474 kts 314°
2026-04-23 13:11 45.26679 25.27334 39961 ft 474 kts 314°
2026-04-23 13:12 45.31022 25.20287 39969 ft 474 kts 314°
2026-04-23 13:12 45.35363 25.13225 39967 ft 473 kts 314°
2026-04-23 13:13 45.39718 25.06122 39958 ft 476 kts 314°
2026-04-23 13:13 45.44054 24.99032 39933 ft 474 kts 314°
2026-04-23 13:14 45.48383 24.91936 39893 ft 475 kts 314°
2026-04-23 13:14 45.52692 24.84853 39900 ft 475 kts 314°
2026-04-23 13:15 45.57045 24.77680 39927 ft 475 kts 314°
2026-04-23 13:15 45.61366 24.70543 39946 ft 475 kts 314°
2026-04-23 13:16 45.65684 24.63391 39987 ft 475 kts 314°
2026-04-23 13:16 45.69993 24.56236 40008 ft 475 kts 315°
2026-04-23 13:17 45.74269 24.49117 40016 ft 475 kts 314°
2026-04-23 13:17 45.78625 24.41847 40050 ft 474 kts 315°
2026-04-23 13:18 45.82897 24.34699 40037 ft 474 kts 314°
2026-04-23 13:18 45.87207 24.27468 40050 ft 475 kts 314°
2026-04-23 13:19 45.91513 24.20224 40039 ft 474 kts 314°
2026-04-23 13:19 45.95779 24.13030 40054 ft 476 kts 314°
2026-04-23 13:20 46.00051 24.05805 40050 ft 475 kts 314°
2026-04-23 13:20 46.04349 23.98518 40043 ft 474 kts 314°
2026-04-23 13:21 46.08633 23.91237 40037 ft 474 kts 314°
2026-04-23 13:21 46.12911 23.83946 40042 ft 475 kts 314°
2026-04-23 13:22 46.17174 23.76660 40043 ft 475 kts 314°
2026-04-23 13:22 46.21491 23.69263 40044 ft 475 kts 314°
2026-04-23 13:23 46.25751 23.61945 40041 ft 474 kts 314°
2026-04-23 13:23 46.29991 23.54642 40047 ft 475 kts 314°
2026-04-23 13:24 46.34218 23.47342 40030 ft 475 kts 314°
2026-04-23 13:24 46.38431 23.40046 40012 ft 475 kts 314°
2026-04-23 13:25 46.42675 23.32678 39987 ft 476 kts 314°
2026-04-23 13:25 46.46894 23.25334 39955 ft 475 kts 314°
2026-04-23 13:26 46.51172 23.17866 39942 ft 475 kts 314°
2026-04-23 13:26 46.55426 23.10421 39960 ft 476 kts 314°
2026-04-23 13:27 46.59658 23.02994 39994 ft 476 kts 314°
2026-04-23 13:27 46.63853 22.95611 40003 ft 475 kts 314°
2026-04-23 13:28 46.68063 22.88183 40008 ft 476 kts 314°
2026-04-23 13:28 46.72279 22.80723 40006 ft 476 kts 314°
2026-04-23 13:29 46.76480 22.73271 39994 ft 476 kts 314°
2026-04-23 13:29 46.80679 22.65803 40017 ft 477 kts 314°
2026-04-23 13:30 46.84868 22.58330 40045 ft 477 kts 314°
2026-04-23 13:30 46.89074 22.50806 40049 ft 476 kts 314°
2026-04-23 13:31 46.93270 22.43282 40065 ft 477 kts 314°
2026-04-23 13:31 46.97461 22.35744 40073 ft 477 kts 314°
2026-04-23 13:32 47.01652 22.28186 40075 ft 477 kts 314°
2026-04-23 13:32 47.05822 22.20645 40086 ft 477 kts 314°
2026-04-23 13:33 47.09980 22.13106 40079 ft 477 kts 314°
2026-04-23 13:33 47.14169 22.05489 40091 ft 476 kts 314°
2026-04-23 13:34 47.18332 21.97898 40092 ft 476 kts 314°
2026-04-23 13:34 47.22512 21.90254 40089 ft 478 kts 314°
2026-04-23 13:35 47.26678 21.82519 40081 ft 477 kts 313°
2026-04-23 13:35 47.30746 21.74841 40094 ft 478 kts 313°
2026-04-23 13:36 47.34805 21.67152 40084 ft 477 kts 313°
2026-04-23 13:36 47.38856 21.59459 40090 ft 478 kts 313°
2026-04-23 13:37 47.42911 21.51736 40073 ft 477 kts 313°
2026-04-23 13:37 47.46959 21.44005 40087 ft 477 kts 313°
2026-04-23 13:38 47.50964 21.36335 40090 ft 476 kts 313°
2026-04-23 13:38 47.54994 21.28594 40065 ft 477 kts 312°
2026-04-23 13:39 47.59050 21.20781 40078 ft 477 kts 312°
2026-04-23 13:39 47.63095 21.12969 40081 ft 478 kts 312°
2026-04-23 13:40 47.67113 21.05184 40064 ft 477 kts 312°
2026-04-23 13:40 47.71137 20.97368 40063 ft 477 kts 312°
2026-04-23 13:41 47.75137 20.89572 40068 ft 477 kts 312°
2026-04-23 13:41 47.79171 20.81692 40060 ft 477 kts 312°
2026-04-23 13:42 47.83167 20.73860 40058 ft 477 kts 312°
2026-04-23 13:42 47.87168 20.65997 40051 ft 478 kts 312°
2026-04-23 13:43 47.91159 20.58134 40056 ft 479 kts 312°
2026-04-23 13:43 47.95178 20.50189 40057 ft 478 kts 312°
2026-04-23 13:44 47.99162 20.42291 40047 ft 478 kts 312°
2026-04-23 13:44 48.03157 20.34348 40042 ft 479 kts 311°
2026-04-23 13:45 48.07145 20.26396 40034 ft 479 kts 311°
2026-04-23 13:45 48.11125 20.18438 40049 ft 480 kts 311°
2026-04-23 13:46 48.15111 20.10441 40046 ft 479 kts 311°
2026-04-23 13:46 48.19109 20.02434 40044 ft 479 kts 312°
2026-04-23 13:47 48.23143 19.94472 40051 ft 480 kts 312°
2026-04-23 13:47 48.27195 19.86448 40062 ft 479 kts 312°
2026-04-23 13:48 48.31258 19.78375 40076 ft 478 kts 312°
2026-04-23 13:48 48.35231 19.70454 40072 ft 479 kts 312°
2026-04-23 13:49 48.39274 19.62368 40065 ft 479 kts 312°
2026-04-23 13:49 48.43252 19.54388 40073 ft 478 kts 312°
2026-04-23 13:50 48.47213 19.46420 40077 ft 478 kts 312°
2026-04-23 13:50 48.51195 19.38384 40074 ft 477 kts 312°
2026-04-23 13:51 48.55167 19.30346 40086 ft 480 kts 311°
2026-04-23 13:51 48.59124 19.22312 40087 ft 479 kts 311°
2026-04-23 13:52 48.63145 19.14125 40076 ft 478 kts 311°
2026-04-23 13:52 48.67109 19.06027 40083 ft 478 kts 311°
2026-04-23 13:53 48.71061 18.97932 40052 ft 478 kts 311°
2026-04-23 13:53 48.74968 18.89905 40076 ft 478 kts 311°
2026-04-23 13:54 48.78910 18.81781 40075 ft 477 kts 311°
2026-04-23 13:54 48.82837 18.73663 40091 ft 477 kts 311°
2026-04-23 13:55 48.86763 18.65523 40089 ft 477 kts 311°
2026-04-23 13:55 48.90710 18.57315 40107 ft 478 kts 311°
2026-04-23 13:56 48.94613 18.49174 40103 ft 478 kts 311°
2026-04-23 13:56 48.98509 18.41023 40111 ft 477 kts 311°
2026-04-23 13:57 49.02417 18.32821 40114 ft 478 kts 310°
2026-04-23 13:57 49.06343 18.24555 40107 ft 478 kts 310°
2026-04-23 13:58 49.10245 18.16318 40108 ft 479 kts 310°
2026-04-23 13:58 49.14117 18.07998 40115 ft 480 kts 308°
2026-04-23 13:59 49.17745 17.99459 40120 ft 481 kts 308°
2026-04-23 13:59 49.21366 17.90912 40125 ft 480 kts 308°
2026-04-23 14:00 49.24408 17.83735 40127 ft 480 kts 308°
2026-04-23 14:00 49.28640 17.73734 40139 ft 480 kts 308°
2026-04-23 14:01 49.32267 17.65138 40143 ft 480 kts 308°
2026-04-23 14:01 49.35874 17.56568 40147 ft 480 kts 308°
2026-04-23 14:02 49.39492 17.47947 40149 ft 480 kts 308°
2026-04-23 14:02 49.43126 17.39260 40153 ft 482 kts 308°
2026-04-23 14:03 49.46718 17.30643 40153 ft 480 kts 308°
2026-04-23 14:03 49.50328 17.21960 40155 ft 482 kts 308°
2026-04-23 14:04 49.53915 17.13299 40148 ft 480 kts 308°
2026-04-23 14:04 49.57503 17.04611 40158 ft 481 kts 308°
2026-04-23 14:05 49.61089 16.95897 40159 ft 480 kts 308°
2026-04-23 14:05 49.64664 16.87184 40161 ft 481 kts 308°
2026-04-23 14:06 49.68229 16.78465 40158 ft 479 kts 308°
2026-04-23 14:06 49.71785 16.69738 40158 ft 481 kts 308°
2026-04-23 14:07 49.75364 16.60928 40163 ft 480 kts 308°
2026-04-23 14:07 49.80696 16.47744 40169 ft 480 kts 308°
2026-04-23 14:08 49.84232 16.38968 40171 ft 481 kts 308°
2026-04-23 14:08 49.87782 16.30125 40168 ft 481 kts 308°
2026-04-23 14:09 49.91334 16.21247 40177 ft 482 kts 308°
2026-04-23 14:09 49.94870 16.12378 40185 ft 482 kts 308°
2026-04-23 14:10 49.98371 16.03570 40195 ft 481 kts 308°
2026-04-23 14:10 50.01881 15.94709 40207 ft 486 kts 307°
2026-04-23 14:11 50.05413 15.85757 40209 ft 482 kts 308°
2026-04-23 14:11 50.08915 15.76856 40215 ft 482 kts 308°
2026-04-23 14:12 50.12417 15.67926 40237 ft 484 kts 307°
2026-04-23 14:12 50.15911 15.58981 40233 ft 483 kts 308°
2026-04-23 14:13 50.19381 15.50070 40260 ft 482 kts 307°
2026-04-23 14:13 50.22862 15.41100 40238 ft 484 kts 308°
2026-04-23 14:14 50.26324 15.32146 40232 ft 482 kts 307°
2026-04-23 14:14 50.29787 15.23160 40248 ft 484 kts 307°
2026-04-23 14:15 50.33235 15.14180 40232 ft 482 kts 307°
2026-04-23 14:15 50.36683 15.05171 40235 ft 482 kts 307°
2026-04-23 14:16 50.40130 14.96134 40246 ft 483 kts 307°
2026-04-23 14:16 50.43574 14.87073 40241 ft 483 kts 307°
2026-04-23 14:17 50.46992 14.78048 40247 ft 484 kts 307°
2026-04-23 14:17 50.50427 14.68945 40246 ft 483 kts 307°
2026-04-23 14:18 50.53842 14.59867 40250 ft 484 kts 307°
2026-04-23 14:18 50.57260 14.50745 40243 ft 483 kts 307°
2026-04-23 14:19 50.60672 14.41610 40244 ft 485 kts 307°
2026-04-23 14:19 50.64080 14.32449 40254 ft 485 kts 306°
2026-04-23 14:20 50.67487 14.23260 40258 ft 485 kts 306°
2026-04-23 14:20 50.70892 14.14044 40257 ft 484 kts 306°
2026-04-23 14:21 50.74276 14.04854 40244 ft 485 kts 306°
2026-04-23 14:21 50.77671 13.95599 40246 ft 486 kts 306°
2026-04-23 14:22 50.80957 13.86274 40234 ft 489 kts 302°
2026-04-23 14:22 50.83962 13.76611 40239 ft 490 kts 302°
2026-04-23 14:23 50.86931 13.66969 40242 ft 490 kts 301°
2026-04-23 14:23 50.89911 13.57251 40252 ft 489 kts 302°
2026-04-23 14:24 50.92880 13.47530 40256 ft 490 kts 301°
2026-04-23 14:24 50.95839 13.37798 40265 ft 491 kts 301°
2026-04-23 14:25 50.98779 13.28091 40263 ft 491 kts 300°
2026-04-23 14:25 51.01752 13.18238 40264 ft 492 kts 300°
2026-04-23 14:26 51.04678 13.08494 40276 ft 492 kts 300°
2026-04-23 14:26 51.07621 12.98660 40283 ft 492 kts 300°
2026-04-23 14:27 51.10548 12.88834 40281 ft 493 kts 300°
2026-04-23 14:27 51.13497 12.78899 40292 ft 493 kts 300°
2026-04-23 14:28 51.16415 12.69025 40284 ft 494 kts 300°
2026-04-23 14:28 51.19331 12.59117 40302 ft 495 kts 300°
2026-04-23 14:29 51.22237 12.49202 40307 ft 494 kts 300°
2026-04-23 14:29 51.25140 12.39258 40325 ft 495 kts 300°
2026-04-23 14:30 51.28028 12.29320 40313 ft 495 kts 299°
2026-04-23 14:30 51.30916 12.19343 40318 ft 496 kts 299°
2026-04-23 14:31 51.33796 12.09352 40296 ft 497 kts 299°
2026-04-23 14:31 51.36673 11.99329 40308 ft 497 kts 299°
2026-04-23 14:32 51.39530 11.89332 40315 ft 496 kts 299°
2026-04-23 14:32 51.42410 11.79214 40322 ft 498 kts 299°
2026-04-23 14:33 51.45261 11.69155 40317 ft 498 kts 298°
2026-04-23 14:33 51.48122 11.59014 40331 ft 497 kts 298°
2026-04-23 14:34 51.50960 11.48912 40315 ft 498 kts 298°
2026-04-23 14:34 51.53783 11.38820 40310 ft 498 kts 298°
2026-04-23 14:35 51.56603 11.28699 40315 ft 499 kts 297°
2026-04-23 14:35 51.59440 11.18469 40297 ft 499 kts 297°
2026-04-23 14:36 51.62261 11.08253 40324 ft 500 kts 297°
2026-04-23 14:36 51.65060 10.98073 40305 ft 500 kts 297°
2026-04-23 14:37 51.67809 10.87759 40304 ft 502 kts 295°
2026-04-23 14:37 51.70313 10.77235 40312 ft 503 kts 294°
2026-04-23 14:38 51.72803 10.66676 40306 ft 503 kts 294°
2026-04-23 14:38 51.75281 10.56117 40294 ft 503 kts 294°
2026-04-23 14:39 51.77745 10.45566 40301 ft 504 kts 294°
2026-04-23 14:39 51.80195 10.35028 40315 ft 506 kts 294°
2026-04-23 14:40 51.82671 10.24319 40326 ft 505 kts 293°
2026-04-23 14:40 51.85125 10.13658 40340 ft 506 kts 293°
2026-04-23 14:41 51.87549 10.03072 40340 ft 506 kts 293°
2026-04-23 14:41 51.89995 9.92336 40349 ft 506 kts 293°
2026-04-23 14:42 51.92417 9.81651 40352 ft 507 kts 292°
2026-04-23 14:42 51.94841 9.70904 40360 ft 507 kts 292°
2026-04-23 14:43 51.97245 9.60189 40369 ft 508 kts 292°
2026-04-23 14:43 51.99640 9.49463 40379 ft 508 kts 292°
2026-04-23 14:44 52.02027 9.38716 40385 ft 508 kts 292°
2026-04-23 14:44 52.04423 9.27871 40375 ft 509 kts 291°
2026-04-23 14:45 52.06512 9.16875 40387 ft 509 kts 287°
2026-04-23 14:45 52.08380 9.05838 40384 ft 509 kts 286°
2026-04-23 14:46 52.10257 8.94685 40391 ft 511 kts 286°
2026-04-23 14:46 52.12119 8.83544 40383 ft 510 kts 286°
2026-04-23 14:47 52.13971 8.72403 40406 ft 511 kts 286°
2026-04-23 14:47 52.15803 8.61306 40393 ft 511 kts 286°
2026-04-23 14:48 52.17641 8.50103 40401 ft 511 kts 286°
2026-04-23 14:48 52.19462 8.38936 40389 ft 511 kts 286°
2026-04-23 14:49 52.21280 8.27707 40394 ft 512 kts 285°
2026-04-23 14:49 52.23085 8.16489 40400 ft 512 kts 285°
2026-04-23 14:50 52.24879 8.05261 40397 ft 512 kts 285°
2026-04-23 14:50 52.26664 7.94014 40401 ft 513 kts 284°
2026-04-23 14:51 52.28429 7.82813 40412 ft 512 kts 284°
2026-04-23 14:51 52.30193 7.71547 40403 ft 513 kts 284°
2026-04-23 14:52 52.31944 7.60282 40412 ft 512 kts 284°
2026-04-23 14:52 52.33684 7.49017 40410 ft 512 kts 284°
2026-04-23 14:53 52.35421 7.37683 40409 ft 512 kts 284°
2026-04-23 14:53 52.37145 7.26363 40403 ft 511 kts 283°
2026-04-23 14:54 52.38867 7.14971 40406 ft 512 kts 283°
2026-04-23 14:54 52.40570 7.03626 40404 ft 511 kts 283°
2026-04-23 14:55 52.42247 6.92376 40403 ft 512 kts 283°
2026-04-23 14:55 52.43930 6.81002 40405 ft 511 kts 283°
2026-04-23 14:56 52.45604 6.69604 40412 ft 511 kts 283°
2026-04-23 14:56 52.47257 6.58266 40410 ft 511 kts 283°
2026-04-23 14:57 52.48901 6.46910 40418 ft 511 kts 283°
2026-04-23 14:57 52.50546 6.35464 40424 ft 510 kts 283°
2026-04-23 14:58 52.52149 6.24221 40419 ft 510 kts 282°
2026-04-23 14:58 52.53760 6.12843 40429 ft 510 kts 282°
2026-04-23 14:59 52.55369 6.01391 40432 ft 510 kts 282°
2026-04-23 14:59 52.56956 5.90010 40454 ft 510 kts 282°
2026-04-23 15:00 52.58529 5.78641 40422 ft 510 kts 282°
2026-04-23 15:00 52.60101 5.67199 40436 ft 510 kts 282°
2026-04-23 15:01 52.61650 5.55830 40431 ft 510 kts 282°
2026-04-23 15:01 52.63194 5.44410 40443 ft 511 kts 282°
2026-04-23 15:02 52.64713 5.33091 40432 ft 510 kts 281°
2026-04-23 15:02 52.66226 5.21720 40452 ft 510 kts 281°
2026-04-23 15:03 52.67740 5.10258 40437 ft 509 kts 281°
2026-04-23 15:03 52.69252 4.98711 40433 ft 510 kts 281°
2026-04-23 15:04 52.70749 4.87189 40439 ft 510 kts 281°
2026-04-23 15:04 52.72214 4.75828 40449 ft 508 kts 281°
2026-04-23 15:05 52.73666 4.64473 40448 ft 508 kts 281°
2026-04-23 15:05 52.75108 4.53097 40458 ft 507 kts 281°
2026-04-23 15:06 52.76534 4.41765 40456 ft 505 kts 281°
2026-04-23 15:06 52.77953 4.30384 40460 ft 506 kts 280°
2026-04-23 15:07 52.79367 4.18951 40459 ft 505 kts 280°
2026-04-23 15:07 52.80753 4.07651 40460 ft 506 kts 280°
2026-04-23 15:08 52.82136 3.96283 40454 ft 504 kts 280°
2026-04-23 15:09 52.84178 3.79313 40460 ft 504 kts 280°
2026-04-23 15:09 52.85532 3.67936 40477 ft 503 kts 280°
2026-04-23 15:10 52.86858 3.56704 40459 ft 501 kts 280°
2026-04-23 15:10 52.88191 3.45313 40469 ft 503 kts 280°
2026-04-23 15:11 52.89436 3.34585 40470 ft 501 kts 279°
2026-04-23 15:11 52.90743 3.23214 40474 ft 501 kts 279°
2026-04-23 15:12 52.92044 3.11939 40462 ft 499 kts 281°
2026-04-23 15:12 52.93535 3.00734 40471 ft 500 kts 281°
2026-04-23 15:13 52.95021 2.89543 40453 ft 499 kts 281°
2026-04-23 15:13 52.96482 2.78401 40458 ft 498 kts 281°
2026-04-23 15:14 52.97931 2.67240 40465 ft 497 kts 281°
2026-04-23 15:14 52.99368 2.56069 40471 ft 498 kts 281°
2026-04-23 15:15 53.00794 2.44876 40462 ft 496 kts 281°
2026-04-23 15:15 53.02175 2.33946 40463 ft 495 kts 281°
2026-04-23 15:16 53.03574 2.22788 40483 ft 494 kts 281°
2026-04-23 15:16 53.04959 2.11649 40485 ft 494 kts 281°
2026-04-23 15:17 53.06336 2.00477 40485 ft 493 kts 281°
2026-04-23 15:17 53.07701 1.89310 40499 ft 494 kts 281°
2026-04-23 15:18 53.09049 1.78193 40486 ft 492 kts 281°
2026-04-23 15:18 53.10388 1.67051 40486 ft 492 kts 281°
2026-04-23 15:19 53.11717 1.55903 40486 ft 492 kts 281°
2026-04-23 15:19 53.13031 1.44791 40493 ft 491 kts 281°
2026-04-23 15:20 53.14336 1.33649 40497 ft 491 kts 280°
2026-04-23 15:20 53.15634 1.22484 40508 ft 491 kts 280°
2026-04-23 15:21 53.16914 1.11374 40504 ft 489 kts 280°
2026-04-23 15:21 53.18192 1.00175 40505 ft 490 kts 281°
2026-04-23 15:22 53.19443 0.89131 40507 ft 488 kts 281°
2026-04-23 15:22 53.20692 0.77997 40510 ft 488 kts 281°
2026-04-23 15:23 53.21922 0.66933 40511 ft 489 kts 281°
2026-04-23 15:23 53.23150 0.55792 40509 ft 488 kts 281°
2026-04-23 15:24 53.24356 0.44745 40509 ft 488 kts 281°
2026-04-23 15:24 53.25559 0.33636 40511 ft 488 kts 280°
2026-04-23 15:25 53.26753 0.22493 40510 ft 487 kts 280°
2026-04-23 15:25 53.27939 0.11331 40503 ft 487 kts 280°
2026-04-23 15:26 53.29110 0.00210 40512 ft 487 kts 280°
2026-04-23 15:26 53.30265 -0.10882 40514 ft 486 kts 280°
2026-04-23 15:27 53.31415 -0.22020 40514 ft 486 kts 280°
2026-04-23 15:27 53.32553 -0.33154 40515 ft 486 kts 280°
2026-04-23 15:28 53.33689 -0.44376 40519 ft 486 kts 280°
2026-04-23 15:28 53.34797 -0.55429 40519 ft 485 kts 280°
2026-04-23 15:29 53.35898 -0.66515 40517 ft 483 kts 279°
2026-04-23 15:29 53.36984 -0.77551 40514 ft 483 kts 279°
2026-04-23 15:30 53.38060 -0.88595 40503 ft 482 kts 280°
2026-04-23 15:30 53.39132 -0.99707 40506 ft 482 kts 280°
2026-04-23 15:31 53.40183 -1.10718 40502 ft 481 kts 280°
2026-04-23 15:31 53.41228 -1.21775 40504 ft 481 kts 280°
2026-04-23 15:32 53.42265 -1.32878 40497 ft 479 kts 280°
2026-04-23 15:32 53.43283 -1.43886 40495 ft 479 kts 280°
2026-04-23 15:33 53.44295 -1.54945 40486 ft 478 kts 280°
2026-04-23 15:33 53.45289 -1.65919 40485 ft 478 kts 279°
2026-04-23 15:34 53.46276 -1.76943 40473 ft 476 kts 279°
2026-04-23 15:34 53.47249 -1.87914 40470 ft 475 kts 279°
2026-04-23 15:35 53.48207 -1.98839 40470 ft 475 kts 279°
2026-04-23 15:35 53.49159 -2.09816 40488 ft 475 kts 279°
2026-04-23 15:36 53.50083 -2.20593 40500 ft 473 kts 279°
2026-04-23 15:36 53.51013 -2.31553 40502 ft 471 kts 279°
2026-04-23 15:37 53.51924 -2.42416 40492 ft 470 kts 279°
2026-04-23 15:37 53.52826 -2.53300 40510 ft 471 kts 279°
2026-04-23 15:38 53.53714 -2.64120 40492 ft 468 kts 279°
2026-04-23 15:38 53.54595 -2.74993 40503 ft 469 kts 279°
2026-04-23 15:39 53.55461 -2.85805 40494 ft 466 kts 279°
2026-04-23 15:39 53.56314 -2.96578 40485 ft 465 kts 279°
2026-04-23 15:39 53.56734 -3.01932 40070 ft 461 kts 279°
2026-04-23 15:40 53.57149 -3.07255 39100 ft 467 kts 279°
2026-04-23 15:40 53.57568 -3.12644 38247 ft 469 kts 279°
2026-04-23 15:40 53.57990 -3.18119 37377 ft 470 kts 279°
2026-04-23 15:40 53.58408 -3.23578 36599 ft 469 kts 279°
2026-04-23 15:41 53.58816 -3.28944 35989 ft 468 kts 279°
2026-04-23 15:41 53.59229 -3.34401 35235 ft 470 kts 279°
2026-04-23 15:41 53.59639 -3.39845 34366 ft 474 kts 279°
2026-04-23 15:41 53.60046 -3.45279 33435 ft 476 kts 279°
2026-04-23 15:42 53.60457 -3.50813 32488 ft 478 kts 278°
2026-04-23 15:42 53.60870 -3.56408 31548 ft 480 kts 278°
2026-04-23 15:42 53.61274 -3.61893 30869 ft 475 kts 278°
2026-04-23 15:42 53.61925 -3.67283 30348 ft 466 kts 286°
2026-04-23 15:43 53.62986 -3.72336 29774 ft 459 kts 291°
2026-04-23 15:43 53.64180 -3.77296 29167 ft 454 kts 292°
2026-04-23 15:43 53.65354 -3.82152 28582 ft 448 kts 292°
2026-04-23 15:43 53.66523 -3.87008 28002 ft 443 kts 292°
2026-04-23 15:44 53.67656 -3.91738 27435 ft 439 kts 291°
2026-04-23 15:44 53.68796 -3.96514 26868 ft 448 kts 291°
2026-04-23 15:44 53.69980 -4.01485 26270 ft 454 kts 291°
2026-04-23 15:44 53.71066 -4.06429 25683 ft 449 kts 286°
2026-04-23 15:45 53.71692 -4.11493 25112 ft 444 kts 276°
2026-04-23 15:45 53.71952 -4.16645 24567 ft 439 kts 273°
2026-04-23 15:45 53.72154 -4.21775 24002 ft 437 kts 273°
2026-04-23 15:45 53.72346 -4.26810 23436 ft 434 kts 273°
2026-04-23 15:46 53.72536 -4.31878 22868 ft 431 kts 273°
2026-04-23 15:46 53.72723 -4.36913 22285 ft 428 kts 273°
2026-04-23 15:46 53.72903 -4.41844 21709 ft 424 kts 273°
2026-04-23 15:46 53.73080 -4.46744 21145 ft 421 kts 273°
2026-04-23 15:47 53.73254 -4.51629 20558 ft 417 kts 273°
2026-04-23 15:47 53.73426 -4.56516 19969 ft 414 kts 273°
2026-04-23 15:47 53.73593 -4.61341 19375 ft 411 kts 273°
2026-04-23 15:47 53.73750 -4.65908 18830 ft 409 kts 272°
2026-04-23 15:48 53.73912 -4.70683 18251 ft 405 kts 272°
2026-04-23 15:48 53.74070 -4.75392 17678 ft 403 kts 272°
2026-04-23 15:48 53.74226 -4.80098 17093 ft 400 kts 272°
2026-04-23 15:48 53.74380 -4.84771 16494 ft 397 kts 272°
2026-04-23 15:49 53.74530 -4.89365 15924 ft 395 kts 272°
2026-04-23 15:49 53.74680 -4.93970 15340 ft 393 kts 272°
2026-04-23 15:49 53.74826 -4.98512 14760 ft 390 kts 272°
2026-04-23 15:49 53.74970 -5.03049 14143 ft 389 kts 272°
2026-04-23 15:50 53.75112 -5.07611 13317 ft 393 kts 271°
2026-04-23 15:50 53.75141 -5.12248 12606 ft 391 kts 264°
2026-04-23 15:50 53.74684 -5.16666 11985 ft 385 kts 252°
2026-04-23 15:50 53.73883 -5.20938 11410 ft 380 kts 249°
2026-04-23 15:51 53.73045 -5.25141 10898 ft 374 kts 249°
2026-04-23 15:51 53.72231 -5.29200 10802 ft 357 kts 248°
2026-04-23 15:51 53.71458 -5.33037 10729 ft 341 kts 248°
2026-04-23 15:51 53.70703 -5.36771 10611 ft 328 kts 248°
2026-04-23 15:52 53.69982 -5.40316 10471 ft 317 kts 248°
2026-04-23 15:52 53.69278 -5.43767 10334 ft 306 kts 248°
2026-04-23 15:52 53.68594 -5.47111 10196 ft 297 kts 248°
2026-04-23 15:52 53.67969 -5.50365 10041 ft 290 kts 252°
2026-04-23 15:53 53.67518 -5.53603 9886 ft 283 kts 254°
2026-04-23 15:53 53.67109 -5.56797 9833 ft 274 kts 254°
2026-04-23 15:53 53.66701 -5.59944 9780 ft 277 kts 254°
2026-04-23 15:53 53.66285 -5.63133 9706 ft 277 kts 254°
2026-04-23 15:54 53.65871 -5.66285 9633 ft 276 kts 253°
2026-04-23 15:54 53.65456 -5.69446 9558 ft 276 kts 253°
2026-04-23 15:54 53.65041 -5.72595 9485 ft 276 kts 253°
2026-04-23 15:54 53.64629 -5.75712 9415 ft 276 kts 253°
2026-04-23 15:55 53.64211 -5.78870 9340 ft 276 kts 253°
2026-04-23 15:55 53.63794 -5.82015 9267 ft 276 kts 253°
2026-04-23 15:55 53.63375 -5.85165 9192 ft 276 kts 253°
2026-04-23 15:55 53.62952 -5.88337 9117 ft 276 kts 253°
2026-04-23 15:56 53.62537 -5.91445 9037 ft 276 kts 253°
2026-04-23 15:56 53.62115 -5.94597 8966 ft 275 kts 253°
2026-04-23 15:56 53.61692 -5.97752 8898 ft 275 kts 253°
2026-04-23 15:56 53.61274 -6.00858 8828 ft 276 kts 253°
2026-04-23 15:57 53.60846 -6.04034 8746 ft 276 kts 253°
2026-04-23 15:57 53.60425 -6.07159 8660 ft 275 kts 253°
2026-04-23 15:57 53.60003 -6.10276 8614 ft 275 kts 253°
2026-04-23 15:57 53.59579 -6.13405 8548 ft 276 kts 253°
2026-04-23 15:58 53.59148 -6.16577 8446 ft 276 kts 253°
2026-04-23 15:58 53.58723 -6.19700 8376 ft 275 kts 253°
2026-04-23 15:58 53.58298 -6.22817 8303 ft 274 kts 253°
2026-04-23 15:58 53.57871 -6.25938 8236 ft 275 kts 253°
2026-04-23 15:59 53.57439 -6.29098 8162 ft 275 kts 253°
2026-04-23 15:59 53.57022 -6.32205 8085 ft 272 kts 256°
2026-04-23 15:59 53.57104 -6.35334 8004 ft 270 kts 284°
2026-04-23 15:59 53.57999 -6.38016 7979 ft 263 kts 312°
2026-04-23 16:00 53.59399 -6.39992 7987 ft 266 kts 326°
2026-04-23 16:00 53.60930 -6.41752 7987 ft 268 kts 317°
2026-04-23 16:00 53.61984 -6.44268 7978 ft 263 kts 287°
2026-04-23 16:00 53.62310 -6.47269 7962 ft 258 kts 267°
2026-04-23 16:01 53.61969 -6.50186 7656 ft 255 kts 242°
2026-04-23 16:01 53.61088 -6.52733 7348 ft 252 kts 230°
2026-04-23 16:01 53.60033 -6.55057 7083 ft 249 kts 226°
2026-04-23 16:01 53.58941 -6.57287 6846 ft 247 kts 225°
2026-04-23 16:02 53.57847 -6.59489 6618 ft 245 kts 225°
2026-04-23 16:02 53.56751 -6.61693 6370 ft 244 kts 225°
2026-04-23 16:02 53.55678 -6.63852 6148 ft 237 kts 224°
2026-04-23 16:02 53.54575 -6.65813 5908 ft 228 kts 210°
2026-04-23 16:03 53.53142 -6.66813 5675 ft 216 kts 187°
2026-04-23 16:03 53.51701 -6.67188 5472 ft 204 kts 182°
2026-04-23 16:03 53.50324 -6.67439 5248 ft 195 kts 181°
2026-04-23 16:03 53.49001 -6.67648 5027 ft 187 kts 180°
2026-04-23 16:04 53.47762 -6.67776 4899 ft 174 kts 169°
2026-04-23 16:04 53.46668 -6.67086 4762 ft 168 kts 146°
2026-04-23 16:04 53.45900 -6.65608 4561 ft 170 kts 116°
2026-04-23 16:04 53.45618 -6.63783 4323 ft 155 kts 103°
2026-04-23 16:05 53.45499 -6.61952 4128 ft 162 kts 100°
2026-04-23 16:05 53.45414 -6.60123 3983 ft 145 kts 99°
2026-04-23 16:05 53.45341 -6.58514 3824 ft 132 kts 101°
2026-04-23 16:05 53.45267 -6.57030 3664 ft 125 kts 101°
2026-04-23 16:06 53.45192 -6.55590 3509 ft 124 kts 101°
2026-04-23 16:06 53.45117 -6.54152 3349 ft 124 kts 101°
2026-04-23 16:06 53.45041 -6.52709 3198 ft 123 kts 101°
2026-04-23 16:06 53.44979 -6.51283 3082 ft 123 kts 99°
2026-04-23 16:07 53.44913 -6.49852 2926 ft 123 kts 101°
2026-04-23 16:07 53.44815 -6.48408 2740 ft 123 kts 101°
2026-04-23 16:07 53.44741 -6.47002 2532 ft 123 kts 99°
2026-04-23 16:07 53.44683 -6.45578 2319 ft 122 kts 99°
2026-04-23 16:08 53.44599 -6.44169 2138 ft 121 kts 100°
2026-04-23 16:08 53.44522 -6.42766 1997 ft 121 kts 99°
2026-04-23 16:08 53.44449 -6.41336 1861 ft 122 kts 101°
2026-04-23 16:08 53.44342 -6.39914 1663 ft 123 kts 98°
2026-04-23 16:09 53.44292 -6.38494 1508 ft 122 kts 95°
2026-04-23 16:09 53.44218 -6.37072 1352 ft 124 kts 98°
2026-04-23 16:09 53.44127 -6.35622 1173 ft 124 kts 97°
2026-04-23 16:09 53.44056 -6.34172 1003 ft 124 kts 97°
2026-04-23 16:10 53.43979 -6.32732 852 ft 127 kts 97°
2026-04-23 16:10 53.43899 -6.31261 681 ft 127 kts 96°
2026-04-23 16:10 53.43808 -6.29767 496 ft 127 kts 95°
2026-04-23 16:10 53.43731 -6.28287 312 ft 127 kts 95°
2026-04-23 16:11 53.43651 -6.26853 238 ft 116 kts 94°
2026-04-23 16:11 53.43588 -6.25664 221 ft 71 kts 97°
2026-04-23 16:11 53.43500 -6.25137 217 ft 32 kts 120°
2026-04-23 16:11 53.43451 -6.25015 217 ft 10 kts 144°
2026-04-23 16:12 53.43389 -6.25051 217 ft 12 kts 251°
2026-04-23 16:12 53.43389 -6.25213 217 ft 15 kts 276°
2026-04-23 16:12 53.43399 -6.25397 218 ft 16 kts 274°
2026-04-23 16:12 53.43405 -6.25580 220 ft 14 kts 259°
2026-04-23 16:13 53.43324 -6.25626 220 ft 15 kts 161°
2026-04-23 16:13 53.43093 -6.25475 219 ft 19 kts 156°
2026-04-23 16:13 53.42973 -6.25389 218 ft 13 kts 157°
2026-04-23 16:14 53.42882 -6.25310 218 ft 15 kts 154°
2026-04-23 16:14 53.42794 -6.25244 218 ft 12 kts 156°
2026-04-23 16:14 53.42719 -6.25152 218 ft 14 kts 127°
2026-04-23 16:14 53.42632 -6.25058 219 ft 15 kts 156°
2026-04-23 16:15 53.42561 -6.24962 219 ft 12 kts 96°
2026-04-23 16:15 53.42531 -6.24828 220 ft 14 kts 146°
2026-04-23 16:15 53.42460 -6.24769 220 ft 6 kts 155°
2026-04-23 16:15 53.42433 -6.24732 220 ft 2 kts 108°
2026-04-23 16:16 53.42439 -6.24700 220 ft 3 kts 46°
2026-04-23 16:16 53.42467 -6.24677 221 ft 5 kts 21°
2026-04-23 16:16 53.42511 -6.24649 221 ft 7 kts 21°
2026-04-23 16:16 53.42532 -6.24636 221 ft 0 kts 21°
2026-04-23 16:17 53.42535 -6.24634 222 ft 0 kts 21°